sat.trackr.live / text

‹ back to catalog

STARLINK-37279

NORAD 68768 · 2026-086C

PAYLOAD ACTIVE UNKNOWN

§ Identity

Operator
Country
US
Launch date
2026-04-19
Launch site
AFWTR
Launch vehicle
Mass (kg)
RCS (m²)

Purposes: comms

External: N2YO · Heavens-Above · Gunter

§ Orbital elements

Epoch: 2026-05-25T04:00:03.998880Z

Period
92.20 min
Inclination
97.2846°
Eccentricity
0.0001711
Mean motion
15.61804694 rev/d
Perigee alt
381.3 km
Apogee alt
383.6 km
Semi-major
6,760.6 km
B*
-2.5046e-2
RAAN
181.9930°
Arg perigee
84.8377°
Mean anomaly
189.4381°
Rev number
606

§ Raw data

STARLINK-372791 68768U 26086C   26145.16671295 -.01914666  00000+0 -25046-1 0  99942 68768  97.2846 181.9930 0001711  84.8377 189.4381 15.61804694  6061

JSON: /api/v1/satellites/68768 · /tle

For live sub-satellite position, see the globe view (requires WebGL).

§ Visibility from observer

Set your observer location to see the next 7 days of passes ≥ 10°. The values pass through the URL so the page stays shareable.

No JS? Fill the form by hand. The geolocation button needs JavaScript.